Home > Weather > Chesterfield > Past weeks

Flag for United Kingdom Weather for the Past 2 Weeks in Chesterfield, England, United Kingdom

Now
38 °F

Smoke.


Feels Like: 33 °F
Forecast: N/A
Wind: 6 mph from West

Location: Nottingham Weather Centre

Current Time: Feb 10, 2016 at 11:23:24 PM

Latest Report: Feb 10, 2016 at 10:00 PM


Visibility: 6 mi

Pressure: 29.60 "Hg

Humidity: 84%

Dew point: 33 °F

Location of ChesterfieldLocation

Historic Weather in Chesterfield — Graph

°F

Chesterfield Temperature Yesterday

Maximum temperature yesterday: 42 °F (at 4:00 PM)
Minimum temperature yesterday: 35 °F (at 7:00 AM)
Average temperature yesterday: 39 °F

High & Low Weather Summary for the Past Weeks

 TemperatureHumidityPressure
High57 °F (Feb 1, 1:00 PM)100% (Jan 31, 1:00 PM)30.24 "Hg (Jan 31, 1:00 PM)
Low32 °F (Jan 28, 6:00 AM)50% (Feb 1, 2:00 PM)28.76 "Hg (Feb 8, 9:00 AM)
Average45 °F81%29.62 "Hg
* Reported Jan 26 8:00 PM — Feb 10 8:00 PM, Chesterfield, Weather by CustomWeather, © 2016

Note: Actual official high and low records may vary slightly from our data, if they occured in-between our weather recording intervals... More about our weather records

Advertising

Chesterfield Weather History for the Previous 24 Hours

 ConditionsComfort  
Time TempWeatherWind HumidityBarometerVisibility
8:00 PM
Wed, Feb 10
38 °FChilly.7 mph75%29.57 "Hg9 mi
7:00 PM38 °FChilly.6 mph70%29.55 "Hg11 mi
6:00 PM40 °FQuite cool.7 mph65%29.54 "Hg28 mi
5:00 PM42 °FQuite cool.7 mph61%29.50 "Hg13 mi
4:00 PM44 °FQuite cool.12 mph54%29.47 "Hg22 mi
3:00 PM45 °FQuite cool.9 mph54%29.44 "Hg22 mi
2:00 PM45 °FQuite cool.13 mph56%29.44 "Hg22 mi
1:00 PM44 °FQuite cool.7 mph66%29.41 "Hg22 mi
12:00 PM43 °FQuite cool.9 mph63%29.41 "Hg22 mi
10:00 AM42 °FQuite cool.8 mph78%29.38 "Hg25 mi
9:00 AM40 °FChilly.3 mph87%29.35 "Hg10 mi
5:00 AM38 °FChilly.5 mph96%29.23 "Hg12 mi
4:00 AM38 °FChilly.6 mph95%29.21 "Hg12 mi
3:00 AM38 °FChilly.6 mph93%29.21 "Hg31 mi
2:00 AM37 °FChilly.6 mph93%29.18 "Hg9 mi
12:00 AM38 °FChilly.9 mph89%29.15 "Hg31 mi
11:00 PM
Tue, Feb 9
37 °FChilly.12 mph89%29.12 "Hg19 mi
Weather by CustomWeather, © 2016

See weather overviewHow to use our weather pages